TimeBST,TemperatureF,Dew PointF,Humidity,Sea Level PressureIn,VisibilityMPH,Wind Direction,Wind SpeedMPH,Gust SpeedMPH,PrecipitationIn,Events,Conditions,WindDirDegrees,DateUTC
12:50 AM,60,58,90,30.26,12,SSW,5.8,,,,Scattered Clouds,200,2013-06-29 23:50:00
12:50 AM,59.0,57.2,94,30.24,-9999.0,SSW,5.8,-,N/A,,Clear,200,2013-06-29 23:50:00
1:50 AM,57.2,57.2,100,30.24,3.7,WSW,6.9,-,N/A,,Haze,240,2013-06-30 00:50:00
2:24 AM,57.2,57.2,100,30.24,2.5,SW,4.6,-,N/A,,Haze,230,2013-06-30 01:24:00
2:50 AM,57.2,57.2,100,30.24,2.5,WSW,4.6,-,N/A,,Mostly Cloudy,240,2013-06-30 01:50:00
3:12 AM,57.2,57.2,100,30.24,2.2,WSW,5.8,-,N/A,,Mostly Cloudy,240,2013-06-30 02:12:00
3:50 AM,58,57,94,30.24,2,SW,3.5,,,,Mist,230,2013-06-30 02:50:00
3:50 AM,57.2,57.2,100,30.21,2.2,SW,3.5,-,N/A,,Mostly Cloudy,230,2013-06-30 02:50:00
4:50 AM,57.2,57.2,100,30.21,1.2,WSW,5.8,-,N/A,,Overcast,240,2013-06-30 03:50:00
5:50 AM,57.2,57.2,100,30.21,1.1,WSW,4.6,-,N/A,,Light Drizzle,240,2013-06-30 04:50:00
5:58 AM,57.2,57.2,100,30.21,0.9,West,5.8,-,N/A,,Light Drizzle,260,2013-06-30 04:58:00
6:20 AM,57.2,55.4,94,30.21,1.4,WSW,6.9,-,N/A,,Light Drizzle,250,2013-06-30 05:20:00
6:50 AM,57,56,97,30.23,2,WSW,6.9,,,Rain,Light Drizzle,240,2013-06-30 05:50:00
6:50 AM,57.2,57.2,100,30.21,1.6,WSW,6.9,-,N/A,,Light Drizzle,240,2013-06-30 05:50:00
7:50 AM,59.0,57.2,94,30.21,2.5,WSW,5.8,-,N/A,,Haze,250,2013-06-30 06:50:00
8:50 AM,62.6,57.2,82,30.21,5.0,WSW,6.9,-,N/A,,Haze,240,2013-06-30 07:50:00
9:50 AM,64,58,76,30.21,9,WSW,8.1,,,,Partly Cloudy,240,2013-06-30 08:50:00
9:50 AM,64.4,59.0,83,30.21,6.2,WSW,8.1,-,N/A,,Mostly Cloudy,240,2013-06-30 08:50:00
10:50 AM,62.6,57.2,82,30.21,6.2,WSW,9.2,-,N/A,,Mostly Cloudy,250,2013-06-30 09:50:00
11:50 AM,64.4,57.2,77,30.18,6.2,WSW,9.2,-,N/A,,Mostly Cloudy,240,2013-06-30 10:50:00
12:50 PM,65,56,66,30.18,19,WSW,11.5,,,,Partly Cloudy,240,2013-06-30 11:50:00
12:50 PM,66.2,57.2,73,30.18,6.2,WSW,11.5,-,N/A,,Mostly Cloudy,240,2013-06-30 11:50:00
1:50 PM,68.0,55.4,64,30.15,6.2,WSW,12.7,24.2,N/A,,Mostly Cloudy,240,2013-06-30 12:50:00
2:50 PM,68.0,55.4,64,30.12,6.2,SW,10.4,-,N/A,,Scattered Clouds,230,2013-06-30 13:50:00
3:50 PM,69,55,52,30.14,22,SW,10.4,,,,Scattered Clouds,230,2013-06-30 14:50:00
3:50 PM,68.0,55.4,64,30.12,6.2,SW,10.4,-,N/A,,Scattered Clouds,230,2013-06-30 14:50:00
4:50 PM,68.0,55.4,64,30.12,6.2,WSW,12.7,-,N/A,,Partly Cloudy,240,2013-06-30 15:50:00
5:50 PM,66.2,53.6,64,30.09,6.2,WSW,12.7,-,N/A,,Partly Cloudy,240,2013-06-30 16:50:00
6:50 PM,62,53,63,30.11,25,WSW,12.7,,,,Scattered Clouds,240,2013-06-30 17:50:00
6:50 PM,62.6,51.8,68,30.09,6.2,WSW,12.7,-,N/A,,Mostly Cloudy,240,2013-06-30 17:50:00
7:50 PM,60.8,51.8,72,30.09,6.2,WSW,11.5,-,N/A,,Mostly Cloudy,250,2013-06-30 18:50:00
8:50 PM,59.0,53.6,82,30.09,6.2,WSW,10.4,-,N/A,,Mostly Cloudy,240,2013-06-30 19:50:00
9:50 PM,59,52,71,30.10,22,WSW,12.7,,,,Mostly Cloudy,250,2013-06-30 20:50:00
9:50 PM,59.0,51.8,77,30.09,6.2,WSW,12.7,24.2,N/A,,Mostly Cloudy,250,2013-06-30 20:50:00
10:50 PM,57.2,51.8,82,30.09,6.2,WSW,6.9,-,N/A,,Mostly Cloudy,240,2013-06-30 21:50:00
11:50 PM,57.2,53.6,88,30.06,6.2,SW,6.9,-,N/A,,Mostly Cloudy,230,2013-06-30 22:50:00